Weather History for San Jose, Costa Rica

Change the Weather History Date:

Monday, December 30, 2013

  Actual Average Record
Temperature  
Mean Temperature 76 °F -  
Max Temperature 84 °F 80 °F 84 °F (2005)
Min Temperature 69 °F 63 °F 62 °F (2008)
Cooling Degree Days 12    
Growing Degree Days 26 (Base 50)    
Moisture  
Dew Point 58 °F    
Average Humidity 56    
Maximum Humidity 72    
Minimum Humidity 36    
Precipitation  
Precipitation 0.00 in 0.01 in - ()
Sea Level Pressure  
Sea Level Pressure 29.92 in    
Wind  
Wind Speed 13 mph ()    
Max Wind Speed 25 mph    
Max Gust Speed 30 mph    
Visibility 8.2 miles    
Events      
Averages and records for this station are not official NWS values.
T = Trace of Precipitation, MM = Missing Value Source: Averaged Metar Reports

Daily Weather History Graph

Daily Weather History Graph

Search for Another Location

Airport:

Trip Planner

Search our weather history database for the weather conditions in past years. The results will help you decide how hot, cold, wet, or windy it might be!

Date:

Astronomy

Dec. 30, 2013 Rise Set
Actual Time 5:53 AM CST 5:26 PM CST
Civil Twilight 5:30 AM CST 5:48 PM CST
Nautical Twilight 5:03 AM CST 6:15 PM CST
Astronomical Twilight 4:37 AM CST 6:41 PM CST
Moon 3:50 AM CST (12/30) 3:50 PM CST (12/30)
Length of Visible Light 12h 18m
Length of Day
11h 33m
Waning Crescent, 4% of the Moon is Illuminated
Dec 30
Waning Crescent
Jan 1
New
Jan 7
First Quarter
Jan 15
Full
Jan 23
Last Quarter

Hourly Weather History & Observations

Time (CST) Temp. Heat Index Dew Point Humidity Pressure Visibility Wind Dir Wind Speed Gust Speed Precip Events Conditions
12:00 AM 71 °F - 59 °F 58% 29.77 in 12 mi East 12.7 mph - -   Scattered Clouds
12:00 AM 71.6 °F - 59.0 °F 64% 29.97 in 6.2 mi East 12.7 mph - N/A   Partly Cloudy
1:00 AM 71.6 °F - 59.0 °F 64% 29.95 in 6.2 mi East 16.1 mph 27.6 mph N/A   Partly Cloudy
2:00 AM 69.8 °F - 59.0 °F 68% 29.92 in 6.2 mi East 16.1 mph 28.8 mph N/A   Partly Cloudy
3:00 AM 70 °F - 60 °F 62% 29.73 in 12 mi East 15.0 mph - -  
3:00 AM 69.8 °F - 59.0 °F 68% 29.92 in - East 15.0 mph 27.6 mph N/A   Clear
4:00 AM 69.8 °F - 59.0 °F 68% 29.92 in - East 17.3 mph 28.8 mph N/A   Clear
5:00 AM 69.8 °F - 59.0 °F 68% 29.93 in - East 17.3 mph 29.9 mph N/A   Clear
6:00 AM 70 °F - 60 °F 61% 29.77 in 12 mi East 16.1 mph - -   Scattered Clouds
6:00 AM 69.8 °F - 59.0 °F 68% 29.94 in 6.2 mi East 16.1 mph - N/A   Partly Cloudy
7:00 AM 71.6 °F - 57.2 °F 60% 29.96 in 6.2 mi East 15.0 mph 26.5 mph N/A   Partly Cloudy
8:00 AM 75.2 °F - 57.2 °F 53% 29.99 in 6.2 mi East 15.0 mph 28.8 mph N/A   Partly Cloudy
9:00 AM 77 °F - 58 °F 41% 29.82 in 12 mi East 15.0 mph - -   Scattered Clouds
9:00 AM 77.0 °F - 57.2 °F 50% 30.01 in 6.2 mi East 15.0 mph 26.5 mph N/A   Partly Cloudy
10:00 AM 80.6 °F 80.8 °F 57.2 °F 45% 30.01 in 6.2 mi East 17.3 mph 29.9 mph N/A   Partly Cloudy
11:00 AM 80.6 °F 80.5 °F 55.4 °F 42% 30.00 in 6.2 mi East 18.4 mph 29.9 mph N/A   Partly Cloudy
12:00 PM 82 °F - 74 °F 72% 29.78 in 12 mi East 15.0 mph - -   Scattered Clouds
12:00 PM 82.4 °F 82.5 °F 59.0 °F 45% 29.97 in 6.2 mi East 15.0 mph 29.9 mph N/A   Partly Cloudy
2:00 PM 80.6 °F 80.8 °F 57.2 °F 45% 29.93 in 6.2 mi East 12.7 mph 25.3 mph N/A   Partly Cloudy
3:00 PM 81 °F - 59 °F 36% 29.74 in 12 mi East 25.3 mph - -   Scattered Clouds
3:00 PM 80.6 °F 81.1 °F 59.0 °F 48% 29.92 in 6.2 mi East 13.8 mph 25.3 mph N/A   Partly Cloudy
4:00 PM 77.0 °F - 55.4 °F 47% 29.93 in 6.2 mi ENE 12.7 mph 24.2 mph N/A   Scattered Clouds
5:00 PM 75.2 °F - 55.4 °F 50% 29.93 in 6.2 mi East 11.5 mph 23.0 mph N/A   Partly Cloudy
6:00 PM 73 °F - 55 °F 44% 29.83 in 12 mi East 12.7 mph - -  
6:00 PM 73.4 °F - 55.4 °F 53% 29.96 in 6.2 mi East 12.7 mph - N/A   Partly Cloudy
7:00 PM 71.6 °F - 57.2 °F 60% 29.99 in - East 11.5 mph 23.0 mph N/A   Clear
8:00 PM 71.6 °F - 55.4 °F 57% 30.01 in - East 12.7 mph - N/A   Clear
9:00 PM 71 °F - 57 °F 52% 29.84 in 12 mi East 10.4 mph - -   Scattered Clouds
9:00 PM 71.6 °F - 57.2 °F 60% 30.02 in - East 10.4 mph - N/A   Clear
10:00 PM 71.6 °F - 59.0 °F 64% 30.02 in - East 11.5 mph 23.0 mph N/A   Clear
11:00 PM 69.8 °F - 57.2 °F 64% 30.01 in - East 11.5 mph 23.0 mph N/A   Clear